Billings, MT (59101)

9:05 AM MDT on May 25, 2017 (GMT -0600)
Jupiter Sulphur | | Change Station

Elev 3114 ft 45.78 °N, 108.49 °W | Updated 5 minutes ago

Mostly Cloudy
Mostly Cloudy
51.2 °F
Feels Like 51.2 °F
N
15.0
Wind Variable Wind from WSW
Gusts 21.0 mph

Today
High -- | Low -- °F
--% Chance of Precip.
Yesterday
High -- | Low -- °F
Precip. -- in
Pressure 29.58 in
Visibility 10.0 miles
Clouds Few 2500 ft
Scattered Clouds 5500 ft
Mostly Cloudy 9000 ft
Dew Point 35 °F
Humidity 55%
Rainfall 0.00 in
Snow Depth Not available.
5:32 AM 8:50 PM
Waning Crescent, 0% visible
METAR KBIL 251453Z 28022G30KT 10SM FEW025 SCT055 BKN090 09/01 A2962 RMK AO2 PK WND 27030/1447 SLP017 VCSH N SHRA DSNT SE-W T00940011 53017
Pressure 29.58 in
Visibility 10.0 miles
Clouds Few 2500 ft
Scattered Clouds 5500 ft
Mostly Cloudy 9000 ft
Dew Point 35 °F
Humidity 55%
Rainfall 0.00 in
Snow Depth Not available.
5:32 AM 8:50 PM
Waning Crescent, 0% visible
METAR KBIL 251453Z 28022G30KT 10SM FEW025 SCT055 BKN090 09/01 A2962 RMK AO2 PK WND 27030/1447 SLP017 VCSH N SHRA DSNT SE-W T00940011 53017

Get Severe Weather Alerts

Thanks for signing up!

Be on the lookout for a verification email in your inbox.

You'll start receiving the daily forecast at 6 AM.

×

10-Day Weather Forecast

Almanac

Astronomy

May. 25, 2017 Rise Set
Actual Time
Civil Twilight
Nautical Twilight
Astronomical Twilight
Moon
Length of Visible Light
Length of Day
Tomorrow will be .
, % of the Moon is Illuminated

Today's Extremes

State Highs State Lows

Community

WunderPhotos

Category 6

Welcome to Category 6. This is the collective home for Weather Underground's featured writeups by Dr. Jeff Masters (right), Bob Henson (left), Chris Burt, and other regular contributors.

Nearby

Air Quality

  Air Quality AQ Index Pollutant
Not available.

Snow Depth

Station Depth Elevation

Earthquake Activity

City Distance Mag. Time & Date
Minimum magnitude displayed is 2.5.

Coastal Water Temperatures

Place Temperature

Stations

Nearby Weather Stations

Station Location Temp. Windchill Dew Point Humidity Wind Precip. Elev Updated Type
                   

Watches & Warnings

There are currently no watches in effect.